Location: Alladorf
(49.9620°N, 11.3790°E)
Time: 19:44:42
(UTC+00:00)

ATLAS 3B R/B - Pass Details

Date: 29 November 2020
Orbit: 1013 x 1182 km, 63.8° (Epoch: 08 January)

Event Time Altitude Azimuth Distance (km) Brightness Sun altitude
Exits shadow 05:17:52 18° 301° (WNW) 2,400 3.9 -14.0°
Maximum altitude 05:22:32 40° 242° (WSW) 1,583 3.3 -13.3°
Drops below altitude 10° 05:29:06 10° 176° (S) 3,020 5.4 -12.3°
Sets 05:32:00 0° 169° (S) 3,998 6.1 -11.9°
